Tappahannock, VA

12:08 PM EDT on July 24, 2017 (GMT -0400)
Tappahannock

Weather History for KXSA - November, 2012

Change the Weather History Date:

Thursday, November 8, 2012

  Actual Average (KOFP) Record (KOFP)
Temperature  
Mean Temperature 47 °F -  
Max Temperature 57 °F 60 °F 80 °F (1975)
Min Temperature 37 °F 37 °F 17 °F (1967)
Degree Days  
Heating Degree Days 18    
Moisture  
Dew Point 26 °F    
Average Humidity 51    
Maximum Humidity 100    
Minimum Humidity 22    
Precipitation  
Precipitation 0.00 in - - ()
Sea Level Pressure  
Sea Level Pressure 29.95 in    
Wind  
Wind Speed 5 mph (WNW)    
Max Wind Speed 14 mph    
Max Gust Speed 24 mph    
Visibility 10 miles    
Events Rain    
Averages and records for this station are not official NWS values.
T = Trace of Precipitation, MM = Missing Value Source: NWS Daily Summary

Daily Weather History Graph

Daily Weather History Graph

Search for Another Location

Airport or City:

Trip Planner

Search our weather history database for the weather conditions in past years. The results will help you decide how hot, cold, wet, or windy it might be!

Date:

Astronomy

Nov. 08, 2012 Rise Set
Actual Time 6:40 AM EST 5:01 PM EST
Civil Twilight 6:13 AM EST 5:28 PM EST
Nautical Twilight 5:41 AM EST 6:00 PM EST
Astronomical Twilight 5:11 AM EST 6:31 PM EST
Moon 12:40 AM EST (11/8) 1:35 PM EST (11/8)
Length of Visible Light 11h 15m
Length of Day
10h 20m
Waning Crescent, 33% of the Moon is Illuminated
Nov 8
Waning Crescent
Nov 13
New
Nov 20
First Quarter
Nov 28
Full
Dec 6
Last Quarter

Hourly Weather History & Observations

Time (EST) Temp. Windchill Dew Point Humidity Pressure Visibility Wind Dir Wind Speed Gust Speed Precip Events Conditions
12:15 AM 40.1 °F 36.1 °F 34.0 °F 79% 29.90 in 10.0 mi NNW 5.8 mph - N/A   Drizzle
12:35 AM 39.6 °F 37.4 °F 34.3 °F 82% 29.90 in 10.0 mi NNW 3.5 mph - N/A   Drizzle
12:55 AM 39.6 °F 37.4 °F 34.2 °F 81% 29.90 in 10.0 mi NNW 3.5 mph - N/A   Light Drizzle
1:15 AM 39.2 °F 33.6 °F 34.2 °F 82% 29.91 in 10.0 mi NW 8.1 mph - N/A   Drizzle
1:35 AM 38.3 °F 33.9 °F 34.9 °F 87% 29.91 in 10.0 mi WNW 5.8 mph - N/A Rain Rain
2:35 AM 37.4 °F - 35.8 °F 94% 29.90 in 10.0 mi Calm Calm - N/A   Drizzle
2:55 AM 37.4 °F 34.9 °F 36.5 °F 97% 29.90 in 10.0 mi SW 3.5 mph - N/A   Overcast
3:15 AM 37.0 °F - 36.9 °F 99% 29.89 in 10.0 mi Calm Calm - N/A Rain Rain
3:35 AM 37.4 °F - 37.4 °F 100% 29.90 in 10.0 mi Calm Calm - N/A   Overcast
3:55 AM 37.4 °F - 37.4 °F 100% 29.90 in 10.0 mi Calm Calm - N/A Rain Light Rain
4:15 AM 37.4 °F - 37.4 °F 100% 29.90 in 10.0 mi Calm Calm - N/A   Overcast
4:35 AM 37.4 °F 34.9 °F 37.4 °F 100% 29.90 in 10.0 mi WSW 3.5 mph - N/A   Overcast
4:55 AM 37.6 °F 35.1 °F 36.5 °F 96% 29.90 in 10.0 mi WSW 3.5 mph - N/A   Overcast
5:15 AM 37.6 °F 35.1 °F 35.6 °F 93% 29.90 in 10.0 mi SW 3.5 mph - N/A   Mostly Cloudy
5:35 AM 37.8 °F 35.3 °F 34.7 °F 89% 29.90 in 10.0 mi West 3.5 mph - N/A   Overcast
5:55 AM 37.8 °F - 34.5 °F 88% 29.91 in 10.0 mi Calm Calm - N/A   Overcast
6:15 AM 38.3 °F 35.9 °F 33.6 °F 83% 29.92 in 10.0 mi West 3.5 mph - N/A   Overcast
6:35 AM 38.7 °F - 32.2 °F 78% 29.92 in 10.0 mi Calm Calm - N/A   Overcast
6:55 AM 39.0 °F 36.8 °F 31.8 °F 75% 29.93 in 10.0 mi West 3.5 mph - N/A   Overcast
7:15 AM 39.6 °F 37.4 °F 30.6 °F 70% 29.94 in 10.0 mi West 3.5 mph - N/A   Overcast
7:55 AM 41.0 °F 37.1 °F 28.8 °F 62% 29.95 in 10.0 mi West 5.8 mph - N/A   Overcast
8:15 AM 41.4 °F 36.8 °F 26.4 °F 55% 29.96 in 10.0 mi WNW 6.9 mph - N/A   Mostly Cloudy
8:35 AM 41.5 °F 38.6 °F 26.6 °F 55% 29.96 in 10.0 mi West 4.6 mph - N/A   Scattered Clouds
8:55 AM 45.1 °F 40.3 °F 25.3 °F 46% 29.96 in 10.0 mi WNW 9.2 mph - N/A   Clear
9:15 AM 46.9 °F - 25.0 °F 42% 29.96 in 10.0 mi WNW 5.8 mph 16.1 mph N/A   Clear
9:35 AM 48.6 °F - 24.3 °F 39% 29.96 in 10.0 mi WNW 6.9 mph - N/A   Clear
9:55 AM 50.0 °F - 23.7 °F 36% 29.96 in 10.0 mi WNW 10.4 mph 18.4 mph N/A   Clear
10:15 AM 49.3 °F - 21.7 °F 34% 29.97 in 10.0 mi NW 11.5 mph 17.3 mph N/A   Clear
10:35 AM 51.3 °F - 22.6 °F 33% 29.96 in 10.0 mi NW 9.2 mph - N/A   Clear
10:55 AM 50.7 °F - 20.1 °F 30% 29.96 in 10.0 mi WNW 11.5 mph 18.4 mph N/A   Clear
11:15 AM 50.7 °F - 19.6 °F 29% 29.96 in 10.0 mi WNW 10.4 mph 16.1 mph N/A   Clear
11:35 AM 50.4 °F - 19.8 °F 30% 29.95 in 10.0 mi NW 6.9 mph - N/A   Clear
11:55 AM 52.9 °F - 19.6 °F 27% 29.94 in 10.0 mi WNW 10.4 mph 17.3 mph N/A   Clear
12:15 PM 54.0 °F - 19.0 °F 25% 29.94 in 10.0 mi NW 10.4 mph 18.4 mph N/A   Clear
12:35 PM 54.5 °F - 19.0 °F 25% 29.93 in 10.0 mi WNW 6.9 mph 19.6 mph N/A   Clear
12:55 PM 55.4 °F - 18.7 °F 24% 29.92 in 10.0 mi NW 9.2 mph 19.6 mph N/A   Clear
1:15 PM 56.5 °F - 18.3 °F 23% 29.92 in 10.0 mi NW 13.8 mph 20.7 mph N/A   Clear
1:35 PM 57.4 °F - 19.2 °F 23% 29.92 in 10.0 mi WNW 6.9 mph 18.4 mph N/A   Clear
1:55 PM 57.6 °F - 19.0 °F 22% 29.92 in 10.0 mi WNW 10.4 mph 19.6 mph N/A   Clear
2:15 PM 57.2 °F - 18.7 °F 22% 29.92 in 10.0 mi West 13.8 mph 19.6 mph N/A   Clear
2:35 PM 56.8 °F - 17.6 °F 22% 29.92 in 10.0 mi WNW 10.4 mph 24.2 mph N/A   Clear
2:55 PM 56.8 °F - 19.0 °F 23% 29.92 in 10.0 mi WNW 10.4 mph 18.4 mph N/A   Clear
3:15 PM 57.2 °F - 19.2 °F 23% 29.92 in 10.0 mi WNW 11.5 mph 17.3 mph N/A   Clear
3:35 PM 56.7 °F - 19.2 °F 23% 29.92 in 10.0 mi WNW 5.8 mph 17.3 mph N/A   Clear
3:55 PM 56.5 °F - 19.8 °F 24% 29.92 in 10.0 mi West 6.9 mph - N/A   Clear
4:15 PM 55.6 °F - 20.1 °F 25% 29.93 in 10.0 mi WNW 10.4 mph - N/A   Clear
4:35 PM 54.1 °F - 17.8 °F 24% 29.93 in 10.0 mi WNW 4.6 mph - N/A   Clear
4:55 PM 51.8 °F - 17.4 °F 26% 29.94 in 10.0 mi West 3.5 mph - N/A   Clear
5:15 PM 50.4 °F - 17.6 °F 27% 29.95 in 10.0 mi Calm Calm - N/A   Clear
5:35 PM 48.0 °F - 19.2 °F 32% 29.96 in 10.0 mi West 4.6 mph - N/A   Clear
5:55 PM 49.1 °F - 19.2 °F 31% 29.97 in 10.0 mi West 8.1 mph - N/A   Clear
6:15 PM 49.1 °F - 18.7 °F 30% 29.98 in 10.0 mi WNW 5.8 mph - N/A   Clear
6:35 PM 47.3 °F - 18.5 °F 32% 29.99 in 10.0 mi West 3.5 mph - N/A   Clear
6:55 PM 45.7 °F 43.4 °F 19.4 °F 35% 30.00 in 10.0 mi WNW 4.6 mph - N/A   Clear
7:15 PM 46.0 °F 44.8 °F 19.4 °F 35% 30.00 in 10.0 mi WNW 3.5 mph - N/A   Clear
7:35 PM 45.9 °F 42.9 °F 20.1 °F 36% 30.00 in 10.0 mi West 5.8 mph - N/A   Clear
7:55 PM 45.9 °F 43.6 °F 20.7 °F 37% 30.01 in 10.0 mi West 4.6 mph - N/A   Clear
8:15 PM 45.0 °F 42.6 °F 21.4 °F 39% 30.02 in 10.0 mi WNW 4.6 mph - N/A   Clear
8:35 PM 44.6 °F 41.4 °F 21.7 °F 40% 30.03 in 10.0 mi West 5.8 mph - N/A   Clear
9:15 PM 44.6 °F 43.1 °F 24.1 °F 44% 30.03 in 10.0 mi WNW 3.5 mph - N/A   Clear
9:35 PM 44.8 °F 42.4 °F 25.9 °F 48% 30.04 in 10.0 mi WNW 4.6 mph - N/A   Clear
9:55 PM 44.6 °F 41.4 °F 27.1 °F 50% 30.04 in 10.0 mi WNW 5.8 mph - N/A   Clear
10:15 PM 44.6 °F 41.4 °F 27.7 °F 52% 30.05 in 10.0 mi WNW 5.8 mph - N/A   Clear
10:35 PM 44.6 °F 42.2 °F 28.4 °F 53% 30.05 in 10.0 mi WNW 4.6 mph - N/A   Clear
10:55 PM 44.6 °F 43.1 °F 28.9 °F 54% 30.05 in 10.0 mi WNW 3.5 mph - N/A   Clear
11:15 PM 44.6 °F 42.2 °F 29.7 °F 56% 30.05 in 10.0 mi WNW 4.6 mph - N/A   Clear
11:35 PM 44.1 °F 40.8 °F 30.0 °F 58% 30.06 in 10.0 mi WNW 5.8 mph - N/A   Clear
11:55 PM 43.7 °F 41.1 °F 30.2 °F 59% 30.06 in 10.0 mi WNW 4.6 mph - N/A   Clear